• In Uzbekistan
  • List of Countries
  • For 7 days
  • Water Temperature
  • Satellite Maps
  • Weather Map
  • Weather Widgets
  • user-avatar
    Login

    Hourly Weather Rio de Janeiro

    Today, 21 October, Saturday

    Time Temperature Precipitation Wind Pressure Humidity
    00:00 +25°C° 0.3 mm 1 mps 760 mmHg 90%
    01:00 +23°C° 0.1 mm 0 mps 759 mmHg 90%
    02:00 +22°C° 0.1 mm 0 mps 759 mmHg 90%
    03:00 +22°C° 0.1 mm 0 mps 759 mmHg 90%
    04:00 +24°C° 0 mm 1 mps 759 mmHg 88%
    05:00 +25°C° 0 mm 1 mps 759 mmHg 87%
    06:00 +25°C° 0 mm 1 mps 759 mmHg 86%
    07:00 +27°C° 0 mm 1 mps 759 mmHg 75%
    08:00 +29°C° 0 mm 2 mps 759 mmHg 64%
    09:00 +32°C° 0 mm 2 mps 759 mmHg 53%
    10:00 +35°C° 0 mm 2 mps 759 mmHg 47%
    11:00 +37°C° 0 mm 3 mps 759 mmHg 41%
    12:00 +39°C° 0 mm 3 mps 758 mmHg 35%
    13:00 +38°C° 0 mm 4 mps 758 mmHg 38%
    14:00 +37°C° 0 mm 4 mps 757 mmHg 40%
    15:00 +36°C° 0 mm 4 mps 756 mmHg 43%
    16:00 +34°C° 1.1 mm 4 mps 757 mmHg 54%
    17:00 +31°C° 1.1 mm 3 mps 757 mmHg 64%
    18:00 +29°C° 1.1 mm 3 mps 757 mmHg 75%
    19:00 +28°C° 0.4 mm 3 mps 758 mmHg 75%
    20:00 +28°C° 0.4 mm 2 mps 759 mmHg 75%
    21:00 +28°C° 0.4 mm 2 mps 759 mmHg 76%
    22:00 +28°C° 0.1 mm 2 mps 759 mmHg 75%
    23:00 +28°C° 0.1 mm 2 mps 759 mmHg 75%

    Tomorrow, 22 October, Sunday

    Time Temperature Precipitation Wind Pressure Humidity
    00:00 +27°C° 0.1 mm 2 mps 759 mmHg 75%
    01:00 +27°C° 0.1 mm 3 mps 758 mmHg 73%
    02:00 +27°C° 0.1 mm 3 mps 758 mmHg 72%
    03:00 +27°C° 0.1 mm 3 mps 757 mmHg 71%
    04:00 +27°C° 0.1 mm 3 mps 757 mmHg 70%
    05:00 +27°C° 0.1 mm 3 mps 757 mmHg 70%
    06:00 +28°C° 0.1 mm 3 mps 758 mmHg 69%
    07:00 +30°C° 0 mm 3 mps 758 mmHg 63%
    08:00 +33°C° 0 mm 3 mps 758 mmHg 56%
    09:00 +35°C° 0 mm 2 mps 759 mmHg 50%
    10:00 +35°C° 0 mm 2 mps 759 mmHg 48%
    11:00 +35°C° 0 mm 2 mps 758 mmHg 46%
    12:00 +36°C° 0 mm 2 mps 758 mmHg 45%
    13:00 +35°C° 0.2 mm 2 mps 758 mmHg 46%
    14:00 +35°C° 0.2 mm 2 mps 757 mmHg 47%
    15:00 +35°C° 0.2 mm 2 mps 756 mmHg 48%
    16:00 +32°C° 0.8 mm 2 mps 757 mmHg 58%
    17:00 +29°C° 0.8 mm 2 mps 757 mmHg 68%
    18:00 +27°C° 0.8 mm 2 mps 758 mmHg 77%
    19:00 +27°C° 0.4 mm 2 mps 758 mmHg 81%
    20:00 +26°C° 0.4 mm 2 mps 759 mmHg 85%
    21:00 +25°C° 0.4 mm 2 mps 760 mmHg 89%
    22:00 +25°C° 0.4 mm 2 mps 760 mmHg 91%
    23:00 +25°C° 0.4 mm 2 mps 760 mmHg 92%

    Day after tomorrow, 23 October, Monday

    Time Temperature Precipitation Wind Pressure Humidity
    00:00 +25°C° 0.4 mm 1 mps 759 mmHg 93%
    01:00 +25°C° 1.4 mm 1 mps 759 mmHg 93%
    02:00 +25°C° 1.4 mm 1 mps 759 mmHg 94%
    03:00 +25°C° 1.4 mm 1 mps 758 mmHg 94%
    04:00 +25°C° 0.8 mm 1 mps 759 mmHg 94%
    05:00 +25°C° 0.8 mm 1 mps 759 mmHg 93%
    06:00 +25°C° 0.8 mm 1 mps 759 mmHg 93%
    07:00 +25°C° 2 mm 2 mps 760 mmHg 93%
    08:00 +25°C° 2 mm 2 mps 760 mmHg 94%
    09:00 +25°C° 2 mm 3 mps 761 mmHg 94%
    10:00 +23°C° 1 mm 4 mps 761 mmHg 94%
    11:00 +23°C° 1 mm 4 mps 761 mmHg 94%
    12:00 +23°C° 1 mm 5 mps 761 mmHg 94%
    13:00 +22°C° 1.8 mm 5 mps 760 mmHg 95%
    14:00 +22°C° 1.8 mm 4 mps 760 mmHg 95%
    15:00 +21°C° 1.8 mm 4 mps 760 mmHg 96%
    16:00 +21°C° 1.5 mm 4 mps 761 mmHg 96%
    17:00 +21°C° 1.5 mm 3 mps 761 mmHg 96%
    18:00 +21°C° 1.5 mm 3 mps 761 mmHg 96%
    19:00 +21°C° 0.4 mm 3 mps 762 mmHg 96%
    20:00 +21°C° 0.4 mm 3 mps 762 mmHg 95%
    21:00 +21°C° 0.4 mm 3 mps 762 mmHg 95%
    22:00 +21°C° 0.3 mm 3 mps 762 mmHg 95%
    23:00 +21°C° 0.3 mm 2 mps 762 mmHg 95%

    24 October, Tuesday

    Time Temperature Precipitation Wind Pressure Humidity
    00:00 +21°C° 0.3 mm 2 mps 762 mmHg 95%
    01:00 +21°C° 0.4 mm 2 mps 761 mmHg 95%
    02:00 +21°C° 0.4 mm 2 mps 761 mmHg 95%
    03:00 +21°C° 0.4 mm 2 mps 760 mmHg 95%
    04:00 +21°C° 0.3 mm 2 mps 761 mmHg 95%
    05:00 +21°C° 0.3 mm 2 mps 761 mmHg 95%
    06:00 +21°C° 0.3 mm 2 mps 761 mmHg 94%
    07:00 +21°C° 0.2 mm 2 mps 762 mmHg 93%
    08:00 +23°C° 0.2 mm 2 mps 762 mmHg 91%
    09:00 +23°C° 0.2 mm 2 mps 762 mmHg 89%
    10:00 +24°C° 0.1 mm 2 mps 762 mmHg 87%
    11:00 +24°C° 0.1 mm 2 mps 762 mmHg 85%
    12:00 +24°C° 0.1 mm 2 mps 762 mmHg 83%
    13:00 +24°C° 0.1 mm 3 mps 761 mmHg 82%
    14:00 +25°C° 0.1 mm 3 mps 761 mmHg 81%
    15:00 +25°C° 0.1 mm 3 mps 760 mmHg 80%
    16:00 +24°C° 0.1 mm 3 mps 761 mmHg 82%
    17:00 +24°C° 0.1 mm 3 mps 761 mmHg 84%
    18:00 +22°C° 0.1 mm 3 mps 761 mmHg 86%
    19:00 +22°C° 0.1 mm 3 mps 762 mmHg 87%
    20:00 +22°C° 0.1 mm 3 mps 762 mmHg 87%
    21:00 +22°C° 0.1 mm 3 mps 762 mmHg 88%
    22:00 +22°C° 0 mm 3 mps 762 mmHg 88%
    23:00 +22°C° 0 mm 3 mps 762 mmHg 89%

    25 October, Wednesday

    Time Temperature Precipitation Wind Pressure Humidity
    00:00 +21°C° 0 mm 3 mps 761 mmHg 89%
    01:00 +21°C° 0 mm 2 mps 761 mmHg 90%
    02:00 +21°C° 0 mm 2 mps 761 mmHg 90%
    03:00 +21°C° 0 mm 2 mps 761 mmHg 91%
    04:00 +21°C° 0 mm 2 mps 761 mmHg 91%
    05:00 +21°C° 0 mm 2 mps 761 mmHg 91%
    06:00 +22°C° 0 mm 3 mps 761 mmHg 91%
    07:00 +24°C° 0 mm 3 mps 762 mmHg 86%
    08:00 +25°C° 0 mm 3 mps 762 mmHg 80%
    09:00 +27°C° 0 mm 3 mps 762 mmHg 75%
    10:00 +27°C° 0 mm 3 mps 762 mmHg 74%
    11:00 +27°C° 0 mm 3 mps 761 mmHg 72%
    12:00 +28°C° 0 mm 4 mps 761 mmHg 71%
    13:00 +28°C° 0 mm 4 mps 760 mmHg 71%
    14:00 +28°C° 0 mm 4 mps 760 mmHg 71%
    15:00 +28°C° 0 mm 4 mps 760 mmHg 70%
    16:00 +27°C° 0 mm 5 mps 760 mmHg 74%
    17:00 +26°C° 0 mm 5 mps 760 mmHg 78%
    18:00 +26°C° 0 mm 5 mps 760 mmHg 82%
    19:00 +25°C° 0 mm 5 mps 760 mmHg 84%
    20:00 +25°C° 0 mm 5 mps 760 mmHg 86%
    21:00 +23°C° 0 mm 5 mps 761 mmHg 89%
    22:00 +23°C° 0 mm 4 mps 760 mmHg 89%
    23:00 +23°C° 0 mm 4 mps 760 mmHg 89%

    26 October, Thursday

    Time Temperature Precipitation Wind Pressure Humidity
    00:00 +23°C° 0 mm 4 mps 760 mmHg 89%
    01:00 +23°C° 0 mm 4 mps 759 mmHg 89%
    02:00 +23°C° 0 mm 4 mps 759 mmHg 88%
    03:00 +23°C° 0 mm 4 mps 759 mmHg 88%
    04:00 +24°C° 0 mm 3 mps 759 mmHg 87%
    05:00 +24°C° 0 mm 3 mps 759 mmHg 87%
    06:00 +24°C° 0 mm 3 mps 759 mmHg 86%
    07:00 +26°C° 0 mm 3 mps 759 mmHg 80%
    08:00 +27°C° 0 mm 3 mps 759 mmHg 74%
    09:00 +29°C° 0 mm 2 mps 759 mmHg 67%
    10:00 +31°C° 0 mm 3 mps 758 mmHg 61%
    11:00 +34°C° 0 mm 3 mps 758 mmHg 54%
    12:00 +35°C° 0 mm 3 mps 757 mmHg 48%
    13:00 +35°C° 0.1 mm 3 mps 757 mmHg 49%
    14:00 +35°C° 0.1 mm 4 mps 756 mmHg 50%
    15:00 +35°C° 0.1 mm 4 mps 755 mmHg 51%
    16:00 +33°C° 1.3 mm 4 mps 756 mmHg 60%
    17:00 +30°C° 1.3 mm 4 mps 756 mmHg 69%
    18:00 +28°C° 1.3 mm 4 mps 756 mmHg 79%
    19:00 +28°C° 0.8 mm 4 mps 757 mmHg 80%
    20:00 +27°C° 0.8 mm 3 mps 757 mmHg 82%
    21:00 +27°C° 0.8 mm 3 mps 757 mmHg 84%
    22:00 +27°C° 0.5 mm 3 mps 757 mmHg 84%
    23:00 +26°C° 0.5 mm 3 mps 756 mmHg 85%
    Show more